Find Starlink 5497

NORAD ID: 55629 Int'l Des: 2023-021 Owner: SPXS Country: US Constellation: starlink operational
LEOCIRCULAR

リアルタイム位置

3D地球を読み込み中...

Starlink 5497について

説明を読み込み中...

次回通過

Passes for default location (London). Set your location on the main map for personalized predictions.

高度履歴

Loading altitude history...

軌道要素

1 55629U 23021B 26121.88515841 .00002486 00000-0 21603-3 0 9992
2 55629 70.0012 70.4443 0002852 268.2395 91.8437 14.98339343176264
Epoch: May 1, 2026 • Age: 9 hours

現在のステータス

高度 590.5 km
速度 7.56 km/s
衛星直下点 -53.40°S, 81.15°E
打ち上げ日 Feb 17, 2023
運用期間 3.2 years
タイプ internet

技術仕様

分類 Payload
質量 305.00 kg
乾燥質量 290.00 kg
総質量 305.00 kg
長さ 0.20 m
直径 2.80 m
スパン 9.00 m
形状 Box + pan
製造者 SPXS
バスタイプ Starlink
フェーズステータス In Orbit
所有者/国 SPXS/US

Most Searched